Location: Johnson City
(36.3130°N, 82.3540°W)
Time: 08:25:03
(UTC-04:00)

OTV 5 (USA 277) - Visible Passes

Search period start: 21 September 2017 00:00
Search period end: 01 October 2017 00:00
Orbit: 404 x 417 km, 43.0° (Epoch: 07 September)

Date Brightness Start Highest point End Pass type
(mag) Time Alt. Az. Time Alt. Az. Time Alt. Az.
21 Sep ? 04:43:56 12° ENE 04:43:56 12° ENE 04:44:17 10° ENE visible
21 Sep ? 06:16:42 18° WNW 06:18:30 31° NNW 06:21:30 10° NE visible
22 Sep ? 05:28:04 34° NNE 05:28:04 34° NNE 05:30:28 10° NE visible
23 Sep ? 04:39:26 10° ENE 04:39:26 10° ENE 04:39:27 10° ENE visible
23 Sep ? 06:12:11 16° NW 06:13:56 25° N 06:16:43 10° NE visible
24 Sep ? 05:23:32 24° NNE 05:23:32 24° NNE 05:25:36 10° NE visible
25 Sep ? 06:07:40 16° NW 06:09:25 25° N 06:12:13 10° ENE visible
26 Sep ? 05:19:03 21° NNE 05:19:03 21° NNE 05:20:58 10° ENE visible
26 Sep ? 06:52:50 10° NW 06:56:00 41° NNE 06:59:08 10° E visible
27 Sep ? 06:03:16 21° NW 06:04:51 33° NNE 06:07:52 10° E visible
28 Sep ? 05:14:47 22° NE 05:14:47 22° NE 05:16:33 10° ENE visible
28 Sep ? 06:47:57 10° WNW 06:51:15 88° NNE 06:54:32 10° ESE visible
29 Sep ? 05:59:09 37° NW 06:00:10 59° NNE 06:03:25 10° ESE visible
30 Sep ? 05:10:51 21° E 05:10:51 21° E 05:12:12 10° E visible
30 Sep ? 06:43:38 12° W 06:46:20 35° SSW 06:49:21 10° SE visible
